Location: Drocourt
(49.0571°N, 1.7669°E)
Time: 15:07:33
(UTC+00:00)

S-56A Canister/Altair - All Passes

Search period start: 13 April 2024 00:00
Search period end: 23 April 2024 00:00
Orbit: 638 x 2489 km, 38.9° (Epoch: 12 April)

Date Brightness Start Highest point End Pass type
(mag) Time Alt. Az. Time Alt. Az. Time Alt. Az.
13 Apr - 01:28:57 10° W 01:37:54 22° SW 01:47:55 10° S visible
13 Apr - 16:47:50 10° SE 16:49:12 11° SE 16:50:40 10° ESE daylight
13 Apr - 18:44:45 10° SW 18:51:16 33° SSE 19:00:29 10° E daylight
13 Apr - 20:46:37 10° WSW 20:54:57 49° S 21:06:59 10° ESE visible
13 Apr - 22:49:53 10° W 22:59:33 42° SSW 23:12:22 10° SE visible
14 Apr - 00:54:58 10° W 01:04:01 24° SW 01:14:30 10° S visible
14 Apr - 18:11:57 10° SSW 18:17:52 29° SSE 18:26:01 10° E daylight
14 Apr - 20:13:29 10° WSW 20:21:15 47° S 20:32:35 10° ESE visible
14 Apr - 22:16:31 10° W 22:25:40 43° SSW 22:38:10 10° SE visible
15 Apr - 00:21:08 10° W 00:30:08 26° SSW 00:40:55 10° SSE visible
15 Apr - 17:39:15 10° SSW 17:44:31 25° SSE 17:51:35 10° E daylight
15 Apr - 19:40:24 10° WSW 19:47:37 44° S 19:58:11 10° ESE visible
15 Apr - 21:43:11 10° W 21:51:50 44° SSW 22:03:55 10° SE visible
15 Apr - 23:47:26 10° W 23:56:17 28° SSW 00:07:11 10° SSE visible
16 Apr - 17:06:41 10° S 17:11:15 21° SE 17:17:08 10° E daylight
16 Apr - 19:07:23 10° SW 19:14:03 42° SSE 19:23:49 10° ESE visible
16 Apr - 21:09:56 10° WSW 21:18:03 44° S 21:29:38 10° ESE visible
16 Apr - 23:13:51 10° W 23:22:26 29° SSW 23:33:21 10° SSE visible
17 Apr - 01:23:15 10° WSW 01:26:18 11° SW 01:29:30 10° SSW visible
17 Apr - 16:34:16 10° S 16:38:01 17° SE 16:42:37 10° ESE daylight
17 Apr - 18:34:24 10° SW 18:40:34 38° SSE 18:49:29 10° ESE daylight
17 Apr - 20:36:46 10° WSW 20:44:21 44° S 20:55:20 10° ESE visible
17 Apr - 22:40:21 10° W 22:48:37 30° SSW 22:59:25 10° SSE visible
18 Apr - 00:48:03 10° WSW 00:52:34 13° SW 00:57:29 10° SSW visible
18 Apr - 16:02:09 10° SSE 16:04:50 13° SE 16:07:55 10° ESE daylight
18 Apr - 18:01:30 10° SW 18:07:10 35° SSE 18:15:12 10° E daylight
18 Apr - 20:03:37 10° WSW 20:10:42 43° S 20:21:02 10° ESE visible
18 Apr - 22:06:57 10° W 22:14:51 31° SSW 22:25:25 10° SSE visible
19 Apr - 00:13:33 10° WSW 00:18:50 14° SW 00:24:45 10° SSW visible
19 Apr - 17:28:37 10° SW 17:33:48 31° SSE 17:40:57 10° E daylight
19 Apr - 19:30:32 10° WSW 19:37:07 42° S 19:46:45 10° ESE visible
19 Apr - 21:33:38 10° W 21:41:07 32° SSW 21:51:22 10° SE visible
19 Apr - 23:39:26 10° WSW 23:45:06 16° SW 23:51:40 10° S visible
20 Apr - 16:55:49 10° SSW 17:00:31 27° SSE 17:06:46 10° ESE daylight
20 Apr - 18:57:28 10° WSW 19:03:36 40° S 19:12:31 10° ESE daylight
20 Apr - 21:00:23 10° WSW 21:07:26 33° SSW 21:17:16 10° SE visible
20 Apr - 23:05:33 10° WSW 23:11:25 17° SW 23:18:21 10° S visible
21 Apr - 16:23:05 10° SSW 16:27:16 23° SSE 16:32:37 10° ESE daylight
21 Apr - 18:24:27 10° WSW 18:30:09 38° S 18:38:19 10° ESE daylight
21 Apr - 20:27:11 10° WSW 20:33:49 33° SSW 20:43:10 10° SE visible
21 Apr - 22:31:51 10° WSW 22:37:43 18° SSW 22:44:51 10° S visible
22 Apr - 15:50:25 10° SSW 15:54:03 19° SSE 15:58:30 10° ESE daylight
22 Apr - 17:51:28 10° WSW 17:56:45 36° S 18:04:12 10° ESE daylight
22 Apr - 19:54:01 10° WSW 20:00:15 33° SSW 20:09:04 10° SE visible
22 Apr - 21:58:18 10° WSW 22:04:05 19° SSW 22:11:15 10° S visible
